Theta_e
316 316 317 317 317 317 318 318 318 318 318 319 319 319 319 318 318 305 295 301 309 318 318 306 302 299 298 298 302 300 292 288 289 289 291 296 293 297 297 295 296 300 301 307 306
316 317 317 317 317 318 318 318 318 318 318 318 319 318 318 318 310 298 306 314 315 317 303 299 297 297 292 295 298 294 288 291 292 291 291 294 292 292 293 292 292 295 301 304 305
317 317 317 317 318 318 318 318 318 318 318 318 318 318 318 315 302 296 312 315 317 316 304 300 299 296 292 295 294 294 290 294 293 294 294 293 292 292 290 290 293 293 295 302 300
317 317 317 317 318 318 319 319 319 319 318 318 318 318 318 307 291 298 314 317 318 310 302 298 297 292 290 290 294 290 294 293 296 296 294 292 292 291 292 293 295 295 293 298 300
318 317 317 318 318 319 319 319 320 319 318 317 317 317 308 297 296 301 312 309 304 301 297 297 294 293 290 291 292 290 291 293 293 294 293 294 291 290 291 294 295 295 295 293 298
318 318 318 318 318 319 320 320 320 319 316 315 316 316 302 290 300 300 300 302 301 300 298 299 296 296 292 291 290 291 292 291 292 291 292 290 288 288 290 292 293 293 292 292 293
319 318 318 318 319 319 320 320 320 319 314 314 314 309 299 292 298 298 300 299 300 299 297 299 298 294 293 289 293 291 286 288 288 289 289 287 286 286 291 292 291 291 291 292 292
318 318 319 319 319 319 320 320 320 318 313 312 312 301 293 299 297 299 299 298 300 300 299 299 299 295 292 292 290 286 285 282 286 287 288 285 284 289 290 290 290 290 290 290 291
316 318 318 319 319 319 319 320 318 313 312 313 300 295 291 303 296 297 297 295 297 299 298 300 296 291 289 285 282 283 279 281 285 287 286 284 283 288 289 288 288 289 289 289 289
316 317 319 319 319 319 319 318 313 306 307 304 299 291 291 292 296 296 297 297 295 294 295 293 290 285 284 282 278 281 280 282 281 284 285 283 284 288 290 289 290 289 288 287 288
315 316 317 318 319 319 314 301 299 297 296 293 292 292 293 296 297 295 296 294 294 290 285 288 283 281 283 284 284 282 280 280 282 285 282 282 283 287 289 287 286 287 287 288 287
312 314 316 317 317 317 304 294 292 292 290 294 293 293 295 295 290 293 296 289 288 284 286 283 280 284 286 285 284 282 280 280 283 285 282 281 282 288 288 287 286 287 285 286 287
310 311 312 316 316 305 296 295 300 296 288 292 292 292 293 294 289 290 292 289 285 283 283 281 284 287 285 282 282 281 280 279 280 282 283 280 281 285 287 286 287 287 287 287 287
308 309 312 315 308 302 296 301 300 296 282 289 288 291 292 292 287 293 292 289 286 283 283 282 284 284 281 281 283 279 282 282 281 277 273 279 274 281 285 286 285 286 285 285 287
306 308 310 313 304 300 300 299 297 295 278 288 286 293 291 288 288 289 292 288 284 284 282 281 281 281 281 282 283 280 283 281 281 276 271 274 271 280 284 284 285 284 285 284 286
304 306 308 308 304 302 301 298 296 286 278 284 286 285 285 287 287 289 288 289 287 283 282 281 284 283 283 284 284 285 282 281 280 274 268 271 273 278 280 283 285 286 286 287 287
303 304 304 308 300 303 301 298 284 282 287 282 282 285 283 283 284 285 284 282 280 278 277 280 280 282 284 281 283 282 278 270 271 270 271 276 271 278 283 283 283 286 286 287 287
303 303 304 307 303 301 298 288 279 275 280 287 285 284 283 283 282 284 282 280 283 282 280 278 276 281 284 282 281 279 279 273 268 271 274 276 272 280 284 285 286 287 287 287 288
303 298 303 304 304 301 294 278 275 280 287 284 285 282 281 281 282 281 281 281 284 283 280 277 279 282 284 283 282 280 276 281 270 263 269 274 278 284 284 284 285 286 287 287 286
293 293 298 306 304 300 288 281 279 288 290 288 284 284 279 280 279 278 280 283 283 285 285 281 277 281 281 284 284 281 282 277 276 269 265 272 273 278 280 281 284 285 286 287 286
290 287 296 303 301 294 284 277 283 289 292 288 282 283 283 279 279 276 279 283 284 283 284 281 280 277 280 278 279 278 277 278 280 278 271 269 275 283 282 282 285 286 286 287 287
289 280 294 300 288 285 279 278 289 288 291 289 286 284 283 283 279 278 278 282 286 284 280 282 280 272 277 278 280 281 279 279 274 272 273 273 274 285 284 285 288 287 287 288 288
282 282 293 296 282 280 283 284 287 286 287 287 285 286 285 284 275 279 277 284 285 282 281 282 274 267 274 278 279 277 279 280 278 276 272 271 275 283 284 284 286 284 284 284 285
286 276 283 289 287 283 280 281 279 287 287 289 287 286 282 281 282 274 278 283 284 280 290 286 277 274 272 275 278 275 277 278 277 268 272 275 276 282 285 283 284 285 283 282 283
286 280 279 268 282 283 285 281 277 277 286 287 284 285 283 278 280 277 279 282 282 285 284 280 271 274 274 278 278 280 279 277 276 276 273 278 277 283 283 283 284 285 282 281 282
282 280 278 273 280 279 281 280 281 282 282 280 282 283 284 280 281 276 282 281 282 281 280 280 269 270 269 272 277 278 280 279 278 279 278 280 279 287 286 284 283 283 280 280 280
289 289 286 280 278 276 278 280 280 282 284 285 285 282 281 283 286 285 286 285 283 280 277 276 273 270 270 268 268 270 276 279 280 279 280 276 281 282 283 283 283 281 281 281 280
Wind_Speed
10 11 11 12 13 13 13 13 13 13 12 12 12 13 14 16 13 1 2 4 6 13 11 7 1 1 1 2 1 3 4 2 4 3 2 4 1 2 2 2 2 2 3 5 8
9 10 11 12 13 13 14 14 13 13 13 12 12 12 12 14 2 2 2 7 7 9 5 7 4 5 3 0 1 5 3 8 3 2 3 3 2 3 3 1 3 4 2 3 6
9 10 11 12 12 13 13 13 14 14 14 13 12 13 12 8 0 1 5 8 8 5 2 2 3 1 0 2 2 4 6 4 2 2 2 1 5 3 3 5 8 6 4 4 2
9 10 11 12 13 14 14 15 15 15 14 13 12 12 13 2 2 2 7 8 8 4 4 2 1 2 1 3 3 2 6 2 2 2 1 3 2 7 7 8 1 7 1 6 7
7 8 10 12 13 14 15 16 16 16 14 12 9 9 4 2 4 1 6 7 3 2 1 2 1 0 2 3 1 4 3 3 2 3 5 2 6 7 11 13 10 9 5 5 8
8 9 10 10 12 13 15 16 17 17 14 8 5 4 1 2 2 4 5 3 4 4 3 4 2 1 3 3 2 2 3 7 6 3 3 3 4 2 6 4 5 8 10 9 9
8 9 10 11 14 15 16 16 16 15 9 4 1 1 1 2 2 4 6 1 2 2 2 1 1 2 1 3 3 3 6 7 3 3 4 1 7 10 12 6 6 5 5 6 9
11 11 11 11 12 13 16 16 15 12 6 1 1 1 3 0 1 4 5 1 5 2 1 0 2 1 1 2 3 3 1 4 0 1 1 2 10 5 5 6 10 9 7 7 7
12 12 11 11 13 15 18 18 15 3 4 2 1 2 3 2 1 1 2 1 4 2 1 1 2 2 2 4 5 3 4 4 3 4 2 2 9 7 3 3 8 9 8 8 8
12 11 11 10 12 15 19 18 4 2 2 2 2 1 0 2 1 1 1 1 2 1 2 2 5 3 2 4 6 5 4 5 4 2 2 4 18 17 13 11 18 11 9 9 8
14 15 13 12 12 14 10 5 5 2 3 4 1 2 2 2 1 1 1 2 1 3 3 1 3 7 8 7 2 2 3 4 3 2 2 5 11 21 9 8 10 11 8 8 8
18 18 16 15 16 15 2 4 1 1 6 1 1 0 1 1 1 1 4 2 3 4 3 4 7 4 3 3 4 2 2 5 4 1 1 4 15 22 7 5 3 5 0 5 6
18 18 19 17 15 4 3 2 1 0 2 3 2 3 2 2 3 4 1 2 4 3 7 6 2 3 3 3 3 3 4 3 4 5 2 8 9 5 4 1 4 7 4 5 8
19 20 19 20 3 3 2 2 2 2 3 4 3 2 2 2 3 1 1 3 3 7 5 5 0 4 2 3 5 3 1 2 2 5 4 4 6 7 5 6 3 5 6 6 6
18 20 21 14 3 2 1 2 1 3 4 1 3 1 3 4 4 3 1 2 3 3 5 4 4 3 3 3 1 3 2 3 3 4 5 5 5 9 4 7 4 2 4 4 3
18 19 21 3 2 2 1 1 2 4 9 1 3 4 3 3 3 3 1 1 1 1 1 1 1 1 2 3 3 5 4 5 4 3 3 5 5 6 4 5 7 3 4 4 5
19 18 13 3 2 4 2 1 4 5 3 4 4 3 2 4 3 4 4 3 6 5 3 1 1 1 0 3 2 3 4 4 6 4 6 1 3 8 6 5 3 6 6 6 6
20 21 5 3 1 3 2 5 7 5 6 2 1 2 3 5 2 3 2 3 5 3 3 6 4 4 2 2 5 5 6 6 6 2 3 5 5 1 3 4 4 7 7 7 7
15 4 3 1 1 1 3 2 10 7 4 5 2 1 3 2 4 2 6 4 5 8 7 5 2 1 2 1 1 4 3 4 8 1 4 3 5 3 4 3 7 7 6 4 3
3 4 3 3 3 1 2 9 6 4 4 2 7 5 5 4 3 3 6 4 4 2 2 4 3 1 0 1 1 2 3 3 3 1 3 5 5 6 6 5 4 5 7 4 5
3 3 2 4 1 2 8 8 6 6 5 6 5 3 6 6 6 4 4 2 4 3 0 3 4 1 1 5 6 1 1 1 2 4 5 2 7 5 9 8 5 7 5 5 5
2 3 2 2 5 3 5 6 5 5 5 4 4 6 7 6 6 4 7 6 4 6 7 3 4 3 4 1 2 2 4 5 5 5 2 3 8 4 8 7 6 4 4 5 6
2 4 2 1 6 6 2 4 3 3 5 7 7 7 5 7 1 7 4 2 3 5 7 6 1 3 8 4 2 5 5 4 4 3 6 6 7 1 4 4 3 5 4 4 5
2 3 4 1 2 3 4 7 5 4 6 4 5 5 4 5 4 4 3 2 3 3 3 4 3 7 9 6 5 5 5 6 6 4 3 8 6 9 8 4 6 9 6 5 5
3 5 5 4 7 9 4 2 4 4 5 4 4 9 7 5 2 5 3 1 1 4 3 5 6 4 4 3 0 4 6 8 8 6 8 10 11 16 7 6 5 6 4 5 6
3 3 2 3 2 7 11 15 17 5 4 6 7 3 8 13 9 7 8 5 6 3 6 1 3 3 4 3 3 7 12 9 12 14 15 18 27 16 9 7 5 8 6 5 5
2 3 3 5 5 7 10 13 10 7 14 11 8 6 10 11 6 6 7 6 6 9 7 6 7 3 6 3 5 10 15 17 14 8 18 17 27 4 8 8 8 9 8 7 7
Wind_Direction
0 358 357 353 353 352 350 349 346 346 345 344 341 340 339 343 326 73 51 273 303 316 326 276 318 269 56 11 358 81 70 233 244 223 264 334 311 323 290 305 348 271 166 215 165
352 351 350 351 349 348 345 343 342 338 335 336 334 332 339 343 322 50 234 307 310 326 5 16 23 342 13 196 13 101 144 220 213 161 209 310 34 322 314 296 273 289 14 126 153
342 342 339 343 339 338 337 335 334 332 330 328 329 328 331 326 352 312 311 322 317 341 271 310 294 246 223 130 196 176 206 224 220 189 170 234 299 321 253 253 228 206 196 211 182
331 330 332 334 333 333 333 332 332 328 323 319 320 323 324 345 241 299 321 331 324 304 298 312 298 106 190 212 204 204 251 289 262 212 237 259 279 297 220 226 167 176 358 177 196
311 315 321 325 326 330 329 329 327 324 319 306 306 321 342 153 231 303 343 341 6 17 314 32 117 48 206 248 229 210 270 307 329 249 260 297 251 244 262 256 259 253 242 213 206
313 312 312 314 321 324 323 323 322 324 323 315 302 328 250 245 97 359 345 7 26 44 29 36 56 353 285 258 195 330 297 277 286 261 236 262 276 37 274 284 266 232 239 216 204
308 306 306 309 316 319 319 319 319 321 324 339 325 127 23 247 353 354 18 320 344 72 97 65 82 129 346 304 347 334 317 313 230 248 222 75 278 231 249 296 299 275 254 232 216
327 314 309 309 309 314 317 317 313 311 297 317 96 170 222 348 305 4 345 0 354 357 91 263 72 133 150 296 358 342 46 328 36 79 38 39 270 272 287 184 248 258 260 255 245
332 321 305 308 312 319 318 318 314 227 252 256 111 107 267 327 131 310 21 333 301 304 306 301 81 125 40 86 4 355 251 223 290 62 345 165 279 279 327 220 257 256 248 247 256
352 344 339 318 315 318 322 315 298 35 176 191 256 58 186 207 182 322 291 352 31 341 45 58 45 79 46 108 220 204 230 251 252 358 9 255 269 271 269 263 267 264 245 247 235
358 357 344 330 324 327 337 358 10 345 28 212 232 290 104 295 124 188 56 30 110 56 178 212 99 215 222 206 184 163 213 245 275 101 297 249 275 282 292 254 277 270 253 239 232
353 360 352 344 333 323 62 71 33 242 307 241 212 69 103 94 313 214 24 148 146 204 138 43 228 218 162 168 197 181 184 268 286 93 1 347 287 276 288 257 271 304 41 141 106
355 350 346 334 320 20 74 82 31 95 238 288 202 180 186 134 239 212 105 176 188 200 192 174 191 155 177 186 175 219 193 217 211 331 30 330 293 316 315 6 42 34 77 96 133
353 347 341 335 24 335 26 348 45 75 31 236 212 243 138 145 251 195 106 193 232 204 185 225 189 178 179 208 146 225 170 95 70 59 239 11 275 313 331 332 57 71 90 117 124
352 342 341 332 274 337 227 339 0 76 304 149 185 135 138 186 146 188 159 113 198 169 108 246 163 175 178 199 204 199 99 106 90 92 63 333 86 269 338 356 11 109 102 123 129
343 340 341 -0 315 304 308 2 70 47 248 239 143 179 155 194 203 132 116 74 81 118 67 131 315 73 148 80 64 137 85 47 59 93 30 239 131 299 359 320 311 80 120 103 83
335 331 324 315 277 338 347 324 45 215 323 265 213 173 213 191 204 178 170 181 165 106 209 25 255 312 156 109 67 112 79 332 347 9 220 66 52 240 302 319 310 99 65 83 116
334 320 265 245 345 358 26 54 209 234 237 350 258 140 211 154 227 178 146 253 224 181 133 162 305 173 191 226 182 174 160 162 213 194 255 355 249 306 311 321 90 102 125 129 153
336 320 272 344 143 69 101 180 209 204 172 163 62 183 279 211 161 167 203 221 213 187 182 151 217 164 100 36 116 175 196 139 105 66 54 249 278 327 5 76 74 88 91 88 84
339 323 255 5 23 135 122 232 225 215 127 92 196 160 198 228 161 163 190 205 202 185 152 198 117 210 113 84 65 182 157 86 4 173 265 285 275 199 200 149 123 106 83 21 301
13 327 298 352 41 180 219 221 246 247 198 181 204 196 218 189 193 211 206 293 167 164 153 137 109 240 80 199 179 48 236 146 119 154 177 210 261 214 174 171 130 87 77 340 323
315 289 308 325 194 207 198 193 217 255 208 230 138 205 199 190 196 234 219 211 174 158 166 177 131 171 193 306 289 231 222 167 136 239 226 144 270 228 171 176 103 112 259 262 279
270 258 322 35 226 237 233 281 281 230 214 198 215 201 198 197 218 209 208 353 115 165 166 187 268 53 348 353 358 222 199 156 108 81 199 148 255 78 166 195 0 330 6 341 320
293 306 303 209 309 241 212 246 239 287 263 222 218 170 158 215 227 218 229 242 172 190 158 109 155 167 186 195 141 191 200 186 146 124 191 227 274 286 256 299 340 341 323 320 279
208 226 204 240 229 233 263 234 189 227 246 204 250 200 176 209 210 211 274 187 228 213 165 141 197 160 252 259 206 214 210 194 191 189 191 255 234 248 253 205 244 271 290 290 306
238 191 308 228 233 194 221 239 244 205 216 268 236 207 203 217 192 191 178 187 204 130 163 202 240 111 305 317 263 262 250 207 220 224 239 257 262 258 272 277 268 234 243 262 271
191 258 224 220 205 193 216 215 219 197 238 227 255 247 235 239 224 215 201 188 191 164 179 154 135 114 256 2 49 299 239 218 231 197 218 230 246 272 251 225 227 240 207 237 246